Time,TemperatureF,DewpointF,PressureIn,WindDirection,WindDirectionDegrees,WindSpeedMPH,WindSpeedGustMPH,Humidity,HourlyPrecipIn,Conditions,Clouds,dailyrainin,SoftwareType,DateUTC
2013-09-24 00:14:00,63.1,-99.9,30.10,North,5,8.0,-999.0,0,-99.99,,,0.00,weatherlink.com 1.10,2013-09-24 04:14:00,
2013-09-24 00:29:00,63.3,-99.9,30.10,North,5,4.0,-999.0,0,-99.99,,,0.00,weatherlink.com 1.10,2013-09-24 04:29:00,
2013-09-24 00:44:00,63.2,-99.9,30.10,North,5,4.0,-999.0,0,-99.99,,,0.00,weatherlink.com 1.10,2013-09-24 04:44:00,
2013-09-24 00:59:00,62.9,-99.9,30.10,North,5,4.0,-999.0,0,-99.99,,,0.00,weatherlink.com 1.10,2013-09-24 04:59:00,
2013-09-24 01:14:00,62.8,-99.9,30.10,North,5,3.0,-999.0,0,-99.99,,,0.00,weatherlink.com 1.10,2013-09-24 05:14:00,
2013-09-24 01:29:00,62.9,-99.9,30.10,North,5,4.0,-999.0,0,-99.99,,,0.00,weatherlink.com 1.10,2013-09-24 05:29:00,
2013-09-24 01:44:00,62.8,-99.9,30.10,North,5,4.0,-999.0,0,-99.99,,,0.00,weatherlink.com 1.10,2013-09-24 05:44:00,
2013-09-24 01:59:00,62.7,-99.9,30.10,North,5,5.0,-999.0,0,-99.99,,,0.00,weatherlink.com 1.10,2013-09-24 05:59:00,
2013-09-24 02:14:00,62.5,-99.9,30.10,North,5,4.0,-999.0,0,-99.99,,,0.00,weatherlink.com 1.10,2013-09-24 06:14:00,
2013-09-24 02:29:00,62.1,-99.9,30.10,North,5,4.0,-999.0,0,-99.99,,,0.00,weatherlink.com 1.10,2013-09-24 06:29:00,
2013-09-24 02:45:00,61.6,-99.9,30.10,North,5,5.0,-999.0,0,-99.99,,,0.00,weatherlink.com 1.10,2013-09-24 06:45:00,
2013-09-24 03:00:00,61.3,-99.9,30.10,North,5,2.0,-999.0,0,-99.99,,,0.00,weatherlink.com 1.10,2013-09-24 07:00:00,
2013-09-24 03:15:00,61.3,-99.9,30.09,North,5,3.0,-999.0,0,-99.99,,,0.00,weatherlink.com 1.10,2013-09-24 07:15:00,
2013-09-24 03:30:00,61.1,-99.9,30.09,North,5,3.0,-999.0,0,-99.99,,,0.00,weatherlink.com 1.10,2013-09-24 07:30:00,
2013-09-24 03:45:00,60.8,-99.9,30.09,North,5,3.0,-999.0,0,-99.99,,,0.00,weatherlink.com 1.10,2013-09-24 07:45:00,
2013-09-24 04:00:00,60.8,-99.9,30.09,North,5,5.0,-999.0,0,-99.99,,,0.00,weatherlink.com 1.10,2013-09-24 08:00:00,
2013-09-24 04:15:00,60.9,-99.9,30.09,North,5,5.0,-999.0,0,-99.99,,,0.00,weatherlink.com 1.10,2013-09-24 08:15:00,
2013-09-24 04:30:00,60.6,-99.9,30.09,North,5,3.0,-999.0,0,-99.99,,,0.00,weatherlink.com 1.10,2013-09-24 08:30:00,
2013-09-24 04:45:00,60.3,-99.9,30.09,North,5,3.0,-999.0,0,-99.99,,,0.00,weatherlink.com 1.10,2013-09-24 08:45:00,
2013-09-24 05:00:00,60.0,-99.9,30.09,North,5,4.0,-999.0,0,-99.99,,,0.00,weatherlink.com 1.10,2013-09-24 09:00:00,
2013-09-24 05:15:00,59.8,-99.9,30.09,North,5,4.0,-999.0,0,-99.99,,,0.00,weatherlink.com 1.10,2013-09-24 09:15:00,
2013-09-24 05:30:00,59.8,-99.9,30.09,North,5,3.0,-999.0,0,-99.99,,,0.00,weatherlink.com 1.10,2013-09-24 09:30:00,
2013-09-24 05:45:00,59.3,-99.9,30.10,North,5,2.0,-999.0,0,-99.99,,,0.00,weatherlink.com 1.10,2013-09-24 09:45:00,
2013-09-24 06:00:00,59.1,-99.9,30.10,North,5,3.0,-999.0,0,-99.99,,,0.00,weatherlink.com 1.10,2013-09-24 10:00:00,
2013-09-24 06:16:00,58.8,-99.9,30.10,North,5,4.0,-999.0,0,-99.99,,,0.00,weatherlink.com 1.10,2013-09-24 10:16:00,
2013-09-24 06:31:00,58.4,-99.9,30.11,North,5,3.0,-999.0,0,-99.99,,,0.00,weatherlink.com 1.10,2013-09-24 10:31:00,
2013-09-24 06:46:00,57.7,-99.9,30.11,North,5,4.0,-999.0,0,-99.99,,,0.00,weatherlink.com 1.10,2013-09-24 10:46:00,
2013-09-24 07:01:00,56.6,-99.9,30.11,North,5,4.0,-999.0,0,-99.99,,,0.00,weatherlink.com 1.10,2013-09-24 11:01:00,
2013-09-24 07:16:00,55.5,-99.9,30.12,North,5,5.0,-999.0,0,-99.99,,,0.00,weatherlink.com 1.10,2013-09-24 11:16:00,
2013-09-24 07:31:00,55.8,-99.9,30.12,North,5,6.0,-999.0,0,-99.99,,,0.00,weatherlink.com 1.10,2013-09-24 11:31:00,
2013-09-24 07:46:00,56.6,-99.9,30.12,North,5,7.0,-999.0,0,-99.99,,,0.00,weatherlink.com 1.10,2013-09-24 11:46:00,
2013-09-24 08:01:00,57.6,-99.9,30.12,North,5,5.0,-999.0,0,-99.99,,,0.00,weatherlink.com 1.10,2013-09-24 12:01:00,
2013-09-24 08:16:00,58.1,-99.9,30.12,North,5,3.0,-999.0,0,-99.99,,,0.00,weatherlink.com 1.10,2013-09-24 12:16:00,
2013-09-24 08:31:00,58.3,-99.9,30.13,North,5,5.0,-999.0,0,-99.99,,,0.00,weatherlink.com 1.10,2013-09-24 12:31:00,
2013-09-24 08:46:00,59.2,-99.9,30.13,North,5,4.0,-999.0,0,-99.99,,,0.00,weatherlink.com 1.10,2013-09-24 12:46:00,
2013-09-24 09:01:00,59.8,-99.9,30.13,North,5,3.0,-999.0,0,-99.99,,,0.00,weatherlink.com 1.10,2013-09-24 13:01:00,
2013-09-24 09:16:00,61.3,-99.9,30.13,North,5,5.0,-999.0,0,-99.99,,,0.00,weatherlink.com 1.10,2013-09-24 13:16:00,
2013-09-24 09:32:00,63.4,-99.9,30.13,North,5,1.0,-999.0,0,-99.99,,,0.00,weatherlink.com 1.10,2013-09-24 13:32:00,
2013-09-24 09:47:00,64.8,-99.9,30.13,North,5,5.0,-999.0,0,-99.99,,,0.00,weatherlink.com 1.10,2013-09-24 13:47:00,
2013-09-24 10:02:00,66.2,-99.9,30.13,North,5,3.0,-999.0,0,-99.99,,,0.00,weatherlink.com 1.10,2013-09-24 14:02:00,
2013-09-24 10:17:00,68.0,-99.9,30.13,North,5,0.0,-999.0,0,-99.99,,,0.00,weatherlink.com 1.10,2013-09-24 14:17:00,
2013-09-24 10:32:00,68.3,-99.9,30.13,North,5,1.0,-999.0,0,-99.99,,,0.00,weatherlink.com 1.10,2013-09-24 14:32:00,
2013-09-24 10:47:00,68.8,-36.0,30.13,North,5,4.0,-999.0,1,-99.99,,,0.00,weatherlink.com 1.10,2013-09-24 14:47:00,
2013-09-24 11:02:00,69.5,8.0,30.13,North,5,7.0,-999.0,9,-99.99,,,0.00,weatherlink.com 1.10,2013-09-24 15:02:00,
2013-09-24 11:17:00,69.2,10.0,30.12,North,5,5.0,-999.0,10,-99.99,,,0.00,weatherlink.com 1.10,2013-09-24 15:17:00,
2013-09-24 11:32:00,70.0,24.0,30.12,North,5,2.0,-999.0,18,-99.99,,,0.00,weatherlink.com 1.10,2013-09-24 15:32:00,
2013-09-24 11:47:00,70.4,29.0,30.12,North,5,5.0,-999.0,21,-99.99,,,0.00,weatherlink.com 1.10,2013-09-24 15:47:00,
2013-09-24 12:02:00,70.6,37.0,30.11,North,5,8.0,-999.0,29,-99.99,,,0.00,weatherlink.com 1.10,2013-09-24 16:02:00,
2013-09-24 12:17:00,71.2,43.0,30.10,North,5,5.0,-999.0,37,-99.99,,,0.00,weatherlink.com 1.10,2013-09-24 16:17:00,
2013-09-24 12:32:00,71.5,42.0,30.09,North,5,5.0,-999.0,35,-99.99,,,0.00,weatherlink.com 1.10,2013-09-24 16:32:00,
2013-09-24 12:47:00,71.8,43.0,30.09,North,5,5.0,-999.0,35,-99.99,,,0.00,weatherlink.com 1.10,2013-09-24 16:47:00,
2013-09-24 13:03:00,71.8,42.0,30.08,North,5,6.0,-999.0,34,-99.99,,,0.00,weatherlink.com 1.10,2013-09-24 17:03:00,
2013-09-24 13:18:00,72.0,46.0,30.07,North,5,4.0,-999.0,40,-99.99,,,0.00,weatherlink.com 1.10,2013-09-24 17:18:00,
2013-09-24 13:33:00,72.4,48.0,30.06,North,5,7.0,-999.0,42,-99.99,,,0.00,weatherlink.com 1.10,2013-09-24 17:33:00,
2013-09-24 13:48:00,73.2,47.0,30.05,North,5,5.0,-999.0,40,-99.99,,,0.00,weatherlink.com 1.10,2013-09-24 17:48:00,
2013-09-24 14:03:00,73.1,48.0,30.05,North,5,11.0,-999.0,41,-99.99,,,0.00,weatherlink.com 1.10,2013-09-24 18:03:00,
2013-09-24 14:18:00,73.5,50.0,30.04,North,5,6.0,-999.0,44,-99.99,,,0.00,weatherlink.com 1.10,2013-09-24 18:18:00,
2013-09-24 14:33:00,74.4,51.0,30.04,North,5,7.0,-999.0,44,-99.99,,,0.00,weatherlink.com 1.10,2013-09-24 18:33:00,
2013-09-24 14:48:00,74.4,52.0,30.03,North,5,3.0,-999.0,46,-99.99,,,0.00,weatherlink.com 1.10,2013-09-24 18:48:00,
2013-09-24 15:03:00,75.3,54.0,30.02,North,5,6.0,-999.0,47,-99.99,,,0.00,weatherlink.com 1.10,2013-09-24 19:03:00,
2013-09-24 15:18:00,74.8,53.0,30.02,North,5,5.0,-999.0,47,-99.99,,,0.00,weatherlink.com 1.10,2013-09-24 19:18:00,
2013-09-24 15:33:00,75.3,54.0,30.01,North,5,3.0,-999.0,47,-99.99,,,0.00,weatherlink.com 1.10,2013-09-24 19:33:00,
2013-09-24 15:48:00,75.1,54.0,30.01,North,5,1.0,-999.0,48,-99.99,,,0.00,weatherlink.com 1.10,2013-09-24 19:48:00,
2013-09-24 16:03:00,75.4,54.0,30.01,North,5,0.0,-999.0,47,-99.99,,,0.00,weatherlink.com 1.10,2013-09-24 20:03:00,
2013-09-24 16:18:00,75.4,54.0,30.00,North,5,3.0,-999.0,47,-99.99,,,0.00,weatherlink.com 1.10,2013-09-24 20:18:00,
2013-09-24 16:34:00,75.6,54.0,30.01,North,5,2.0,-999.0,47,-99.99,,,0.00,weatherlink.com 1.10,2013-09-24 20:34:00,
2013-09-24 16:49:00,74.3,50.0,30.01,North,5,5.0,-999.0,43,-99.99,,,0.00,weatherlink.com 1.10,2013-09-24 20:49:00,
2013-09-24 17:04:00,73.0,45.0,30.01,North,5,6.0,-999.0,37,-99.99,,,0.00,weatherlink.com 1.10,2013-09-24 21:04:00,
2013-09-24 17:19:00,72.8,40.0,30.01,North,5,5.0,-999.0,31,-99.99,,,0.00,weatherlink.com 1.10,2013-09-24 21:19:00,
2013-09-24 17:34:00,72.4,37.0,30.00,North,5,6.0,-999.0,28,-99.99,,,0.00,weatherlink.com 1.10,2013-09-24 21:34:00,
2013-09-24 17:49:00,72.4,39.0,30.00,North,5,3.0,-999.0,30,-99.99,,,0.00,weatherlink.com 1.10,2013-09-24 21:49:00,
2013-09-24 18:04:00,72.7,41.0,30.00,North,5,4.0,-999.0,32,-99.99,,,0.00,weatherlink.com 1.10,2013-09-24 22:04:00,
2013-09-24 18:19:00,70.8,-99.9,30.00,North,5,12.0,-999.0,0,-99.99,,,0.00,weatherlink.com 1.10,2013-09-24 22:19:00,
2013-09-24 18:34:00,69.9,-99.9,30.00,North,5,12.0,-999.0,0,-99.99,,,0.00,weatherlink.com 1.10,2013-09-24 22:34:00,
2013-09-24 18:49:00,69.5,-99.9,30.00,North,5,11.0,-999.0,0,-99.99,,,0.00,weatherlink.com 1.10,2013-09-24 22:49:00,
2013-09-24 19:04:00,69.4,-99.9,30.00,North,5,10.0,-999.0,0,-99.99,,,0.00,weatherlink.com 1.10,2013-09-24 23:04:00,
2013-09-24 19:19:00,69.3,-99.9,30.00,North,5,9.0,-999.0,0,-99.99,,,0.00,weatherlink.com 1.10,2013-09-24 23:19:00,
2013-09-24 19:34:00,69.2,-99.9,30.00,North,5,8.0,-999.0,0,-99.99,,,0.00,weatherlink.com 1.10,2013-09-24 23:34:00,
2013-09-24 19:49:00,69.1,-99.9,30.00,North,5,4.0,-999.0,0,-99.99,,,0.00,weatherlink.com 1.10,2013-09-24 23:49:00,
2013-09-24 20:05:00,69.0,-99.9,30.00,North,5,7.0,-999.0,0,-99.99,,,0.00,weatherlink.com 1.10,2013-09-25 00:05:00,
2013-09-24 20:20:00,69.0,-99.9,30.01,North,5,7.0,-999.0,0,-99.99,,,0.00,weatherlink.com 1.10,2013-09-25 00:20:00,
2013-09-24 20:35:00,69.0,-99.9,30.01,North,5,7.0,-999.0,0,-99.99,,,0.00,weatherlink.com 1.10,2013-09-25 00:35:00,
2013-09-24 20:50:00,69.0,-99.9,30.01,North,5,8.0,-999.0,0,-99.99,,,0.00,weatherlink.com 1.10,2013-09-25 00:50:00,
2013-09-24 21:05:00,69.1,-99.9,30.01,North,5,5.0,-999.0,0,-99.99,,,0.00,weatherlink.com 1.10,2013-09-25 01:05:00,
2013-09-24 21:20:00,69.0,-99.9,30.00,North,5,4.0,-999.0,0,-99.99,,,0.00,weatherlink.com 1.10,2013-09-25 01:20:00,
2013-09-24 21:35:00,69.0,-99.9,30.00,North,5,6.0,-999.0,0,-99.99,,,0.00,weatherlink.com 1.10,2013-09-25 01:35:00,
2013-09-24 21:50:00,68.8,-99.9,30.00,North,5,6.0,-999.0,0,-99.99,,,0.00,weatherlink.com 1.10,2013-09-25 01:50:00,
2013-09-24 22:05:00,68.8,-99.9,30.00,North,5,2.0,-999.0,0,-99.99,,,0.00,weatherlink.com 1.10,2013-09-25 02:05:00,
2013-09-24 22:20:00,68.5,-99.9,30.00,North,5,2.0,-999.0,0,-99.99,,,0.00,weatherlink.com 1.10,2013-09-25 02:20:00,
2013-09-24 22:35:00,67.7,-99.9,30.00,North,5,3.0,-999.0,0,-99.99,,,0.00,weatherlink.com 1.10,2013-09-25 02:35:00,
2013-09-24 22:50:00,66.5,-99.9,30.00,North,5,4.0,-999.0,0,-99.99,,,0.00,weatherlink.com 1.10,2013-09-25 02:50:00,
2013-09-24 23:05:00,65.6,-99.9,30.00,North,5,3.0,-999.0,0,-99.99,,,0.00,weatherlink.com 1.10,2013-09-25 03:05:00,
2013-09-24 23:20:00,65.3,-99.9,30.00,North,5,3.0,-999.0,0,-99.99,,,0.00,weatherlink.com 1.10,2013-09-25 03:20:00,
2013-09-24 23:36:00,65.3,-99.9,30.00,North,5,2.0,-999.0,0,-99.99,,,0.00,weatherlink.com 1.10,2013-09-25 03:36:00,
2013-09-24 23:51:00,65.3,-99.9,30.00,North,5,4.0,-999.0,0,-99.99,,,0.00,weatherlink.com 1.10,2013-09-25 03:51:00,